Погода в Фонаду

Мальдивы     1°50′02″N   73°30′08″E
темп.,
°C
ветер,
м/с
пор.,
м/с
влажн.,
%
обл.,
%
осадки,
мм/ч
давл.,
гПа
погр.,
м
23 сентября, чт
чт2323:00+29з5673100 1.9 1011782
02:00+29зюз8872100 0.9 10091140
05:00+29зсз8973100 1.1 1008969
08:00+29зсз7874100 0.0 10111009
11:00+29зсз777461 0.0 10111014
14:00+29зсз91072100 0.0 1007998
17:00+29зсз9107428 0.1 10081163
20:00+29зсз910766 1.1 10111015
24 сентября, пт
пт2423:00+28зсз897642 2.1 1012973
02:00+28зсз897732 0.9 1009959
05:00+28зсз8877100 1.9 1010913
08:00+28зсз777762 1.3 1012873
11:00+28з5676100 2.4 1012787
14:00+27зюз6779100 3.6 1009662
17:00+26зюз5582100 9.4 1010469
20:00+27сз4576100 0.3 1012542
25 сентября, сб
сб2523:00+27сз5572100 2.3 1013600
02:00+27сз101177100 0.0 1010756
05:00+27сз91073100 0.0 1010871
08:00+28сз677299 0.0 1012890
11:00+28з7771100 0.0 1011937
14:00+28з777050 0.0 1008884
17:00+29зсз6770100 0.0 10091015
20:00+28зсз6772100 1.3 1011924
26 сентября, вс
вс2623:00+28зсз6775100 5.4 1011783
02:00+29зсз7872100 1.9 10091036
05:00+28зсз7874100 2.4 1009963
08:00+28з8974100 1.8 10111001
11:00+28з7876100 3.3 1011939
14:00+28з7876100 1.8 1008938
17:00+28з7875100 3.6 1009919
20:00+28з897695 0.4 1011850
27 сентября, пн
пн2723:00+28з7878100 3.1 1011854
02:00+28з8978100 1.6 1008911
05:00+27зюз91078100 3.8 1009917
08:00+28зюз91076100 2.2 1011989
11:00+28зюз8878100 4.0 1010854
14:00+28зюз8977100 1.0 1007906
17:00+28зюз7875100 1.7 1008934
20:00+28зюз7876100 0.7 1010819